Lexington Weather

Lexington, Massachusetts, USA

56°F
10/22/2020 8:02pm 
  • Lexington Conditions: Mostly cloudy
  • Temperature: 55.6°F / 13.1°CColder 0.3°F than last hour.
  • Dew Point: 54.1°FDecreased 0.4°Fsince last hour.
  • Relative Humidity: 95
  • Wind: Calm, 10-min avg: Calm, gust: 2 mph
  • Barometer: 30.22 in Steady
  • Visibility: 7 miles
  • Rain Today: 0.00 in
  •   
Southeast Middlesex County - Special Weather Statement
 - SEE ALL NEARBY ALERTS -

Regional Weather Roundup
for Boston / Norton, MA

        
000
ASUS41 KBOX 161505
RWRBOX

REGIONAL WEATHER ROUNDUP
NATIONAL WEATHER SERVICE BOSTON/NORTON MA
1100 AM EDT FRI OCT 16 2020

NOTE:  "FAIR" INDICATES FEW OR NO CLOUDS BELOW 12,000 FEET WITH NO 
SIGNIFICANT WEATHER AND/OR OBSTRUCTIONS TO VISIBILITY.

MAZALL-161600-
EASTERN MASSACHUSETTS
  
CITY           SKY/WX    TMP DP  RH WIND       PRES   REMARKS
BOSTON         LGT RAIN  66  65  96 S7        30.04S                  
BEVERLY        CLOUDY    68  64  87 S13       30.03S                  
LAWRENCE       CLOUDY    71  64  78 VRB6      30.03S                  
BEDFORD        PTSUNNY   72  64  76 S12G20    30.01S                  
BLUE HILL        N/A     65  64  97 S14G20    30.04S                  
NORWOOD        CLOUDY    70  64  81 S9        30.03F                  
MARSHFIELD     CLOUDY    72  66  83 SW15G26   30.05R                  
PLYMOUTH       CLOUDY    69  63  81 S7        30.06S                  
TAUNTON        LGT RAIN  70  65  84 S6        30.05S                  
NEW BEDFORD    CLOUDY    70  64  81 S16G23    30.05S                  
$$

MAZALL-161600-
CAPE COD AND THE ISLANDS
  
CITY           SKY/WX    TMP DP  RH WIND       PRES   REMARKS
FALMOUTH       PTSUNNY   64  63  94 S15G23    30.08S                  
HYANNIS        CLOUDY    68  61  78 S12       30.07S                  
CHATHAM        CLOUDY    68  60  75 VRB7G21   30.10F                  
PROVINCETOWN   CLOUDY    68  62  81 S13       30.07F                  
NANTUCKET      MOSUNNY   68  61  78 S16       30.10S                  
MARTHAS VNYRD  CLOUDY    67  62  84 S16       30.07F                  
$$
 
MAZALL-161600-
CENTRAL AND WESTERN MASSACHUSETTS
  
CITY           SKY/WX    TMP DP  RH WIND       PRES   REMARKS
WORCESTER      CLOUDY    62  58  86 NW15      30.05R                  
FITCHBURG      LGT RAIN  61  58  90 W14G21    30.05R FOG              
ORANGE         LGT RAIN  57  55  93 NW6       30.09S                  
SPRINGFIELD    CLOUDY    59  52  77 N8        30.07R                  
WESTFIELD      CLOUDY    57  51  80 N10       30.08R                  
NORTH ADAMS    CLOUDY    52  49  89 W6        30.13R                  
PITTSFIELD     CLOUDY    50  47  89 NW7       30.11R                  
$$
 
RIZALL-161600-
RHODE ISLAND
  
CITY           SKY/WX    TMP DP  RH WIND       PRES   REMARKS
PROVIDENCE     CLOUDY    69  65  86 S12       30.05S                  
NEWPORT        CLOUDY    65  64  97 S13       30.05F FOG              
BLOCK ISLAND   CLOUDY    66  63  90 S13       30.06S                  
SMITHFIELD     CLOUDY    68  66  93 VRB5        N/A                   
WESTERLY       CLOUDY    67  62  84 S10       30.05S                  
$$
 
CTZALL-161600-
CONNECTICUT
  
CITY           SKY/WX    TMP DP  RH WIND       PRES   REMARKS
BRADLEY INTL   CLOUDY    58  50  75 N6        30.08R                  
HARTFORD       LGT RAIN  60  51  72 N10       30.07R                  
BRIDGEPORT     CLOUDY    62  52  69 NW13G21   30.05R                  
DANBURY        RAIN      55  50  83 N6        30.10R                  
GROTON         CLOUDY    66  65  96 S7        30.03F                  
NEW HAVEN      CLOUDY    63  53  70 N12G18    30.04S                  
CHESTER        NOT AVBL                                               
MERIDEN        CLOUDY    60  50  69 N9        30.07R                  
WILLIMANTIC    LGT RAIN  62  57  83 VRB7G22   30.05R                  
OXFORD         CLOUDY    56  52  86 NW12G18   30.08S FOG              
$$

MEZ002-015-021-024-NHZ003-005-008-011-012-014-VTZ005-008-161600-
NORTHERN NEW ENGLAND
  
CITY           SKY/WX    TMP DP  RH WIND       PRES   REMARKS
PORTLAND ME    CLOUDY    61  60  97 S10G18    30.04S                  
BANGOR ME      CLOUDY    62  57  83 S13       30.08R                  
CONCORD NH     CLOUDY    58  54  86 NW7       30.06R                  
MANCHESTER NH  LGT RAIN  60  56  86 NW6       30.04R FOG              
NASHUA NH      LGT RAIN  61  61 100 NW8       30.05R                  
PORTSMOUTH NH  PTSUNNY   69  62  78 S12       30.01                   
JAFFREY NH     RAIN      56  51  84 CALM      30.08R                  
KEENE NH       LGT RAIN  56  54  93 NW5       30.09R                  
BURLINGTON VT  LGT RAIN  51  48  89 CALM      30.10R                  
MT. WASHINGTON FOG       41  41 100 SW21G37     N/A  VSB 0   WCI  32  
$$

NYZ052-076-161600-
EASTERN NEW YORK
  
CITY           SKY/WX    TMP DP  RH WIND       PRES   REMARKS
ALBANY         DRIZZLE   50  49  96 CALM      30.14R                  
NEW YORK CITY  RAIN      58  51  78 N13G23    30.08R                  
$$
 
ANZALL-161600-
MARINE OBSERVATIONS
  
STATION/POSITION TIME  TEMP    WIND        PRES    VSBY  WAVE
                       AIR SEA DIR/SP/G                  HT/PER
                 (UTC) (F)     (DEG/KT/KT) (MB)    (MI)  (FT/S)
BOSTON BUOY      1450   61 58  140/ 12/ 14 1016.0F         3/10
BUZZARDS BAY     1400          170/ 19/ 21 1018.5R
NANTUCKET SOUND  1450      62  170/ 17/ 21   N/A           3/ 4
MASS BAY-STELLWA 1404   61 58  170/ 12/ 16 1016.5S  1 7/8  4/ 8
ISLE OF SHOALS   NOT AVBL
S OF BLOCK IS    1426      64                N/A           4/ 6
$$

......................KEY.........................
  SKY/WX - SKY CONDITION/PRESENT WEATHER
  TMP    - TEMPERATURE IN FAHRENHEIT
  DWPT   - DEWPOINT IN FAHRENHEIT
  RH     - RELATIVE HUMIDITY IN PERCENT
  WIND   - DIRECTION AND SPEED IN MPH
  PRES   - MEAN SEA LEVEL PRESSURE IN INCHES OF HG
  WCI    - WIND CHILL INDEX
  VSB    - VISIBILITY IN MILES
  HX     - HEAT INDEX
  TC     - TEMPERATURE IN CELSIUS
  VRB    - VARIABLE WIND DIRECTION
  N/A    - NOT AVAILABLE
  
      

Other recent Regional Weather Roundups

Thu Oct 22, 7:05pm

Thu Oct 22, 6:04pm

Thu Oct 22, 5:04pm

Thu Oct 22, 4:05pm

Thu Oct 22, 3:04pm

Thu Oct 22, 2:05pm

Thu Oct 22, 1:04pm

Thu Oct 22, 12:04pm

Thu Oct 22, 11:04am

Thu Oct 22, 10:05am

Thu Oct 22, 9:04am

Thu Oct 22, 8:05am

Thu Oct 22, 7:04am

Thu Oct 22, 6:04am

Thu Oct 22, 5:04am

Thu Oct 22, 4:04am

Thu Oct 22, 3:04am

Thu Oct 22, 2:04am

Thu Oct 22, 1:04am

Thu Oct 22, 12:04am

Wed Oct 21, 11:05pm

Wed Oct 21, 10:04pm

Wed Oct 21, 9:04pm

Wed Oct 21, 8:04pm

Wed Oct 21, 7:04pm

Wed Oct 21, 6:04pm

Wed Oct 21, 5:05pm

Wed Oct 21, 4:04pm

Wed Oct 21, 3:04pm

Wed Oct 21, 2:05pm

Wed Oct 21, 1:04pm

Wed Oct 21, 12:04pm

Wed Oct 21, 11:04am

Wed Oct 21, 10:04am

Wed Oct 21, 9:04am

Wed Oct 21, 8:04am

Wed Oct 21, 7:04am

Wed Oct 21, 6:04am

Wed Oct 21, 5:04am

Wed Oct 21, 4:04am

Wed Oct 21, 3:04am

Wed Oct 21, 2:04am

Wed Oct 21, 1:04am

Wed Oct 21, 12:04am

Tue Oct 20, 11:05pm

Tue Oct 20, 10:04pm

Tue Oct 20, 9:04pm

Tue Oct 20, 8:05pm

Tue Oct 20, 7:04pm

Tue Oct 20, 6:04pm

Tue Oct 20, 5:05pm

Tue Oct 20, 4:04pm

Tue Oct 20, 3:05pm

Tue Oct 20, 2:07pm

Tue Oct 20, 1:04pm

Tue Oct 20, 12:04pm

Tue Oct 20, 11:04am

Tue Oct 20, 10:05am

Tue Oct 20, 9:04am

Tue Oct 20, 8:04am

Tue Oct 20, 7:04am

Tue Oct 20, 6:04am

Tue Oct 20, 5:04am

Tue Oct 20, 4:04am

Tue Oct 20, 3:04am

Tue Oct 20, 2:04am

Tue Oct 20, 1:04am

Tue Oct 20, 12:04am

Mon Oct 19, 11:04pm

Mon Oct 19, 10:04pm

Mon Oct 19, 9:04pm

Mon Oct 19, 8:04pm

Mon Oct 19, 7:04pm

Mon Oct 19, 6:04pm

Mon Oct 19, 5:04pm

Mon Oct 19, 4:04pm

Mon Oct 19, 3:04pm

Mon Oct 19, 2:04pm

Mon Oct 19, 1:05pm

Mon Oct 19, 12:04pm

Mon Oct 19, 11:04am

Mon Oct 19, 10:04am

Mon Oct 19, 9:04am

Mon Oct 19, 8:04am

Mon Oct 19, 7:04am

Mon Oct 19, 6:04am

Mon Oct 19, 5:04am

Mon Oct 19, 4:04am

Mon Oct 19, 3:04am

Mon Oct 19, 2:04am

Mon Oct 19, 1:04am

Mon Oct 19, 12:05am

Sun Oct 18, 11:04pm

Sun Oct 18, 10:04pm

Sun Oct 18, 9:04pm

Sun Oct 18, 8:04pm

Sun Oct 18, 7:05pm

Sun Oct 18, 6:04pm

Sun Oct 18, 5:05pm

Sun Oct 18, 4:05pm

Sun Oct 18, 3:04pm

Sun Oct 18, 2:05pm

Sun Oct 18, 1:04pm

Sun Oct 18, 12:04pm

Sun Oct 18, 11:04am

Sun Oct 18, 10:04am

Sun Oct 18, 9:04am

Sun Oct 18, 8:04am

Sun Oct 18, 7:04am

Sun Oct 18, 6:04am

Sun Oct 18, 5:04am

Sun Oct 18, 4:04am

Sun Oct 18, 3:04am

Sun Oct 18, 2:04am

Sun Oct 18, 1:04am

Sun Oct 18, 12:04am

Sat Oct 17, 11:05pm

Sat Oct 17, 10:04pm

Sat Oct 17, 9:04pm

Sat Oct 17, 8:04pm

Sat Oct 17, 7:04pm

Sat Oct 17, 6:04pm

Sat Oct 17, 5:05pm

Sat Oct 17, 4:04pm

Sat Oct 17, 3:04pm

Sat Oct 17, 2:05pm

Sat Oct 17, 1:05pm

Sat Oct 17, 12:04pm

Sat Oct 17, 11:05am

Sat Oct 17, 10:04am

Sat Oct 17, 9:04am

Sat Oct 17, 8:04am

Sat Oct 17, 7:04am

Sat Oct 17, 6:04am

Sat Oct 17, 5:04am

Sat Oct 17, 4:04am

Sat Oct 17, 3:04am

Sat Oct 17, 2:04am

Sat Oct 17, 1:05am

Sat Oct 17, 12:04am

Fri Oct 16, 11:05pm

Fri Oct 16, 10:04pm

Fri Oct 16, 9:05pm

Fri Oct 16, 8:04pm

Fri Oct 16, 7:05pm

Fri Oct 16, 6:04pm

Fri Oct 16, 5:04pm

Fri Oct 16, 4:05pm

Fri Oct 16, 3:04pm

Fri Oct 16, 2:04pm

Fri Oct 16, 1:04pm

Fri Oct 16, 12:04pm

Fri Oct 16, 10:04am

Fri Oct 16, 9:04am

Fri Oct 16, 8:04am

Fri Oct 16, 7:04am

Fri Oct 16, 6:04am

Fri Oct 16, 5:04am

Fri Oct 16, 4:04am

Fri Oct 16, 3:04am

Fri Oct 16, 2:04am

Fri Oct 16, 1:04am

Fri Oct 16, 12:04am

Thu Oct 15, 11:04pm

Thu Oct 15, 10:04pm

Thu Oct 15, 9:05pm

Thu Oct 15, 8:04pm

Meta data:

ID: 887e1e84-4c0b-44e9-a879-08d5261e6c88
Link: https://api.weather.gov/products/887e1e84-4c0b-44e9-a879-08d5261e6c88